Theta_e
295 295 295 296 295 295 295 295 296 296 297 298 297 296 298 298 292 289 295 299 297 300 301 300 300 300 300 299 298 299 299 299 300 301 300 300 300 301 302 302 304 305 305 305 305 307 308 309 313 319 320 321 320 321 323 324 326 326 325 324 323 324 325 323 322 323 325 327 327 326 325 325 325 325 325 325 324 323 322 322 322 321 321 319 319 319 320
295 295 295 296 294 293 294 294 295 295 296 295 295 296 296 297 297 298 299 298 291 292 295 296 296 297 297 297 298 299 298 298 299 299 298 298 299 298 299 299 300 301 304 304 303 303 304 306 308 311 313 316 317 318 319 319 320 322 324 323 321 321 320 320 321 321 323 325 325 324 323 323 323 324 324 324 324 323 323 322 323 323 322 321 320 319 319
294 296 296 296 295 295 292 293 294 295 296 295 296 295 296 297 299 299 298 297 291 293 295 295 297 298 298 297 296 296 297 297 297 297 296 296 296 297 297 298 298 299 301 302 303 302 302 303 304 306 307 309 311 312 314 316 316 318 319 318 318 318 318 319 320 318 317 318 319 319 320 321 321 322 322 323 324 325 325 325 325 324 324 323 323 322 321
290 294 295 295 295 295 293 291 291 291 292 291 293 291 294 294 292 296 297 295 290 292 295 296 296 296 295 293 294 294 295 296 295 295 295 295 296 296 296 297 297 298 298 300 300 299 299 300 301 303 304 305 307 308 310 312 312 313 312 312 313 314 314 314 314 313 314 315 315 315 316 316 316 316 316 318 319 320 321 323 326 327 325 324 324 325 324
287 294 295 294 294 292 289 285 287 288 291 292 294 296 296 294 294 292 291 295 295 294 295 294 293 293 292 292 293 294 294 295 295 295 294 295 295 296 296 297 297 297 297 298 299 298 299 299 300 301 303 303 303 305 306 309 310 310 310 310 309 309 309 309 309 310 310 310 311 312 313 313 313 312 312 313 314 315 317 320 323 323 324 323 321 320 318
289 289 291 294 289 282 282 288 293 291 289 289 289 291 291 293 295 294 297 296 296 296 296 294 293 292 291 291 293 295 295 294 294 295 295 295 296 296 297 297 297 297 298 298 299 299 299 299 300 301 303 302 303 304 304 305 305 306 306 306 306 306 306 307 308 308 309 309 309 309 310 310 311 310 309 309 310 313 315 317 318 318 318 317 316 315 313
288 290 290 286 281 282 288 293 293 293 294 293 288 291 292 293 295 297 295 295 295 296 295 293 291 291 292 293 293 293 295 296 295 295 295 296 296 296 296 296 297 297 298 298 299 298 299 300 300 301 301 302 302 302 303 303 303 302 302 302 302 304 305 307 308 307 306 306 307 308 308 308 308 307 307 307 309 311 312 313 313 314 314 314 314 314 313
292 288 287 279 280 287 291 292 292 293 294 292 292 291 294 294 294 295 294 294 294 293 291 292 293 292 292 294 293 294 294 295 295 295 295 296 297 297 297 297 297 297 298 298 299 299 300 300 300 302 301 302 302 302 302 301 301 302 302 302 302 303 303 304 305 306 306 307 306 306 305 305 305 305 306 307 307 307 308 309 310 310 312 312 312 312 313
284 286 286 283 286 287 288 288 288 288 285 286 286 285 289 293 294 294 291 292 292 292 291 292 293 294 295 292 291 292 294 295 296 296 296 297 297 298 299 298 297 298 300 300 299 299 299 300 300 301 302 302 302 301 300 300 300 300 300 300 300 301 301 302 303 304 305 304 304 304 306 305 305 305 306 307 306 306 305 305 304 305 307 308 309 308 309
290 287 285 284 283 281 283 287 292 293 292 290 291 287 288 293 294 295 292 290 291 291 292 292 294 295 291 286 286 290 292 295 295 295 296 298 298 299 299 299 299 299 299 300 301 300 299 299 300 301 301 301 301 301 300 300 300 300 299 299 299 300 300 301 302 303 303 303 304 304 303 303 305 306 307 306 306 306 305 303 303 303 304 305 306 306 305
288 285 284 283 280 282 287 288 291 293 293 291 290 287 285 289 292 293 293 290 290 291 291 292 294 294 286 284 285 288 292 294 296 294 295 296 298 299 299 300 299 299 299 300 300 300 299 298 299 301 301 300 299 298 298 299 299 299 298 298 299 299 300 301 301 301 303 303 304 303 303 302 303 303 303 303 304 306 304 304 304 304 304 303 303 304 305
286 286 284 280 283 281 287 289 290 291 293 292 288 282 282 286 291 293 292 291 290 291 290 292 290 289 285 284 286 290 292 295 296 296 295 294 295 296 299 300 299 299 299 299 298 298 297 297 299 300 300 299 298 297 297 297 297 297 297 298 299 300 300 301 302 302 302 300 301 302 302 302 302 302 302 302 303 303 302 303 302 304 304 303 302 302 304
284 284 283 284 284 288 290 289 290 292 293 290 283 279 284 290 292 293 293 292 293 294 293 292 286 285 289 288 290 292 293 294 295 297 297 296 295 295 296 296 297 297 297 297 296 296 297 297 298 299 299 297 296 297 297 296 296 297 297 298 298 298 299 300 300 300 302 301 301 302 302 301 302 302 303 303 304 304 303 304 304 303 303 303 302 302 302
286 286 284 282 284 287 290 291 293 294 289 282 281 286 292 292 292 294 293 291 291 291 289 288 286 285 286 287 289 289 290 293 295 297 297 296 296 296 296 297 297 297 297 297 297 297 297 297 298 298 297 296 296 296 296 296 297 298 299 298 298 298 298 298 298 298 299 300 301 302 302 302 302 303 302 303 303 304 304 305 304 304 304 304 305 304 303
288 286 284 282 277 286 291 290 293 293 286 284 290 291 293 294 292 291 291 290 290 289 286 287 287 286 286 286 287 290 292 294 295 296 295 295 294 295 295 295 296 296 296 296 297 298 298 299 299 298 297 296 296 296 295 296 297 298 298 299 299 299 299 299 299 299 300 301 301 302 302 302 302 302 302 303 304 304 304 304 303 304 305 304 305 305 305
283 282 279 279 284 287 291 290 284 288 290 293 293 292 290 293 292 290 288 289 290 290 288 287 287 288 287 289 291 293 295 295 296 297 296 296 295 295 295 296 296 296 296 296 297 298 299 299 299 299 298 296 296 296 296 298 298 298 298 298 298 298 298 299 300 300 300 300 301 301 302 302 301 301 302 302 302 303 303 303 302 302 302 303 303 303 303
286 282 284 287 289 291 292 292 291 292 295 296 296 294 293 291 290 292 290 288 290 291 290 289 289 288 290 290 292 293 294 295 296 296 296 296 296 296 295 295 296 297 296 296 296 297 298 298 299 299 299 298 297 297 298 299 299 300 300 300 300 299 299 299 299 300 300 300 300 300 301 302 301 301 301 302 302 302 302 302 301 301 301 301 301 300 301
290 290 290 291 291 292 293 295 295 295 296 297 297 295 293 293 292 293 291 291 291 291 292 290 290 290 291 292 293 294 295 296 295 296 296 297 297 297 297 296 296 296 296 297 296 296 297 299 299 299 299 299 298 299 300 301 301 301 301 300 300 300 301 301 301 301 301 300 300 300 300 299 299 299 299 300 300 301 300 300 299 299 298 298 297 298 298
288 281 290 290 292 294 294 293 296 298 298 297 297 295 294 294 294 294 294 293 293 293 293 291 290 291 293 293 293 295 295 295 295 294 295 296 297 297 297 298 298 298 298 296 296 297 297 298 299 299 299 299 299 299 300 301 301 301 301 301 300 301 301 301 301 300 300 301 301 301 302 301 301 301 301 300 300 299 299 299 299 298 299 299 299 299 299
286 285 290 293 295 295 295 295 294 294 296 297 298 297 297 296 296 295 295 295 294 295 293 293 292 292 293 293 293 293 294 294 294 294 294 295 296 297 298 298 299 299 298 298 297 297 297 299 299 299 299 299 299 300 300 300 301 301 300 300 300 300 300 300 301 301 300 293 297 300 300 301 300 300 301 302 300 299 300 300 300 300 300 299 299 300 300
289 292 293 293 295 294 295 297 298 298 297 297 297 297 297 297 296 296 297 297 295 295 294 295 294 293 294 295 294 294 293 294 294 294 294 294 295 296 296 297 297 297 297 297 298 297 298 299 300 300 300 300 300 301 301 302 301 300 300 299 300 300 300 301 300 300 300 300 299 300 300 300 299 299 299 300 301 301 300 300 298 299 300 300 299 300 300
285 286 289 293 286 286 292 295 297 298 299 299 298 298 298 297 296 296 296 297 298 297 296 296 295 294 294 295 296 294 294 294 294 295 294 295 295 296 297 298 297 297 297 297 297 296 297 298 299 299 300 300 300 300 301 301 301 300 300 300 300 300 300 299 300 299 300 299 299 299 300 300 300 298 290 290 294 299 299 291 288 287 288 296 296 298 299
285 290 293 295 294 293 294 296 298 298 299 298 297 297 298 298 298 298 297 296 296 297 297 298 297 295 295 295 296 294 293 294 295 295 295 294 295 295 296 296 296 296 296 297 297 296 296 297 297 297 299 299 300 300 300 301 301 300 300 299 299 299 298 297 296 299 299 299 299 299 299 300 300 296 299 296 288 288 289 289 289 288 288 288 287 287 293
294 295 296 296 294 291 295 297 298 298 299 298 296 297 298 298 298 298 298 298 297 297 297 298 299 298 297 297 297 295 295 295 295 296 296 297 296 296 297 296 296 296 296 296 296 296 296 296 296 297 298 299 299 299 300 300 300 300 300 299 298 298 298 298 297 298 299 299 299 299 299 299 299 299 299 298 297 290 289 290 290 288 288 288 288 288 288
292 297 297 297 296 296 298 298 298 298 299 298 296 296 297 297 298 299 298 297 298 298 297 297 298 299 298 298 298 297 296 296 296 296 296 295 295 296 296 296 296 296 296 296 296 296 296 296 296 297 297 299 300 299 300 300 300 300 299 299 299 299 298 298 298 297 297 299 299 299 299 298 299 299 298 297 297 297 293 289 289 290 289 289 289 288 288
297 297 298 298 297 297 297 296 296 297 297 298 297 296 297 298 299 298 298 298 298 298 297 297 297 298 299 298 297 298 297 296 296 296 297 296 296 296 296 296 297 297 297 297 297 297 296 296 296 296 297 298 300 301 301 301 301 300 299 299 300 299 300 298 299 299 299 299 298 298 298 298 298 298 298 298 297 297 297 297 295 291 288 288 289 289 288
298 298 297 295 294 294 295 294 293 296 296 297 297 296 297 296 297 297 297 297 298 298 298 298 298 298 298 298 297 298 297 296 296 296 296 296 295 296 297 297 297 297 296 297 297 296 294 296 296 296 297 299 300 301 301 300 301 300 300 299 300 293 287 292 299 298 298 298 298 298 298 298 297 297 298 297 297 297 297 297 297 297 297 296 290 289 293
297 297 297 291 290 292 294 296 297 296 296 296 296 295 295 296 296 295 295 295 296 296 297 298 298 297 297 297 297 296 296 296 295 296 296 295 296 297 297 298 298 298 298 297 297 297 296 296 296 296 297 300 301 301 301 300 300 300 299 299 299 299 299 297 298 298 298 298 298 298 298 298 298 297 297 296 296 297 296 296 297 297 297 298 299 290 288
295 296 296 296 295 296 297 298 297 296 295 296 297 296 296 295 294 294 294 295 295 295 295 296 298 298 296 296 297 295 295 295 295 295 296 296 296 297 298 298 298 298 297 296 297 297 297 296 296 295 296 299 300 300 300 300 300 299 299 299 299 298 299 299 298 298 299 298 298 297 293 295 297 297 297 297 296 297 297 297 295 297 298 298 298 299 296
296 296 296 296 296 296 296 295 294 295 295 295 295 295 295 295 293 293 294 295 295 295 295 296 296 296 297 296 296 296 295 295 295 296 296 297 297 297 297 297 297 297 296 296 296 296 296 296 296 295 295 299 300 300 300 301 300 300 300 299 299 299 299 299 299 299 298 299 296 290 295 297 297 297 297 298 297 296 296 295 294 294 297 296 293 296 294
296 297 297 296 296 295 294 294 295 295 295 295 295 294 295 295 294 294 294 295 295 295 295 295 295 296 296 296 296 296 296 296 295 296 296 296 295 293 295 296 294 292 293 294 296 297 297 296 296 296 296 298 300 300 300 300 300 299 300 299 300 290 287 288 291 298 298 297 296 296 298 297 297 296 293 295 296 295 296 295 295 294 294 296 295 294 294
295 295 295 294 294 294 294 294 294 294 294 295 294 294 294 294 294 293 294 294 295 295 295 295 295 295 295 296 296 295 295 294 292 294 293 291 287 284 289 292 293 291 293 293 293 294 295 296 296 297 297 298 299 300 300 300 300 299 299 295 298 298 294 287 296 296 296 295 296 296 296 297 297 296 295 294 294 294 295 294 294 293 294 292 294 295 294
293 292 292 292 293 293 293 294 293 293 294 294 294 295 295 295 295 294 295 295 295 295 295 295 295 296 296 296 295 295 292 287 285 285 286 286 285 284 286 291 293 294 293 295 296 296 295 295 296 298 297 297 299 300 300 300 300 299 298 298 298 298 293 292 292 296 296 295 296 296 296 295 296 297 296 293 295 294 293 294 292 293 293 294 294 295 292
294 293 293 294 294 292 292 293 294 294 294 295 295 295 295 295 295 295 295 295 295 295 295 295 296 296 295 292 291 288 286 288 291 291 287 286 286 286 288 291 294 295 296 296 296 295 296 297 296 296 296 297 298 300 300 300 300 300 299 299 298 298 298 296 296 296 296 295 296 293 295 296 296 296 294 294 293 292 293 292 292 292 292 294 294 295 289
296 296 296 296 296 296 295 295 295 294 294 294 294 295 295 296 295 295 295 295 295 295 296 296 296 291 288 287 285 285 285 287 288 287 287 287 286 285 289 293 295 296 296 296 295 295 296 297 298 298 297 298 298 300 300 300 300 299 300 299 299 298 297 296 297 296 296 296 296 297 296 296 294 292 293 294 294 293 293 294 292 292 293 292 293 294 293
296 295 295 296 296 296 296 296 296 296 295 295 293 294 295 295 296 296 295 296 296 296 296 296 294 289 286 286 286 285 285 287 287 286 285 285 284 286 289 292 294 295 295 295 296 296 297 298 291 289 296 298 298 299 300 300 300 300 300 299 297 297 297 295 296 296 297 297 297 295 295 292 294 294 293 294 293 293 292 292 292 292 293 293 293 293 292
296 295 295 295 296 296 296 296 296 296 295 295 295 295 295 296 296 296 297 296 296 296 296 297 296 290 288 286 287 287 287 288 290 289 288 286 286 286 287 288 293 293 294 293 295 296 297 297 286 282 291 296 297 299 300 289 299 300 299 299 299 298 296 296 296 297 297 296 295 296 292 292 294 294 293 294 293 292 293 292 293 293 292 292 292 292 292
296 296 296 296 295 296 296 296 296 296 295 295 295 295 296 296 296 296 296 297 297 297 297 297 296 294 290 287 286 285 285 285 284 283 283 281 284 286 289 291 292 293 293 292 297 297 297 290 283 289 295 297 298 300 296 286 288 297 299 298 297 297 296 295 295 294 295 296 294 296 295 294 293 294 294 294 293 293 292 292 293 293 292 293 293 292 292
296 297 297 297 296 296 296 296 296 296 296 295 296 295 297 297 297 297 296 296 297 297 296 296 296 296 296 294 292 290 287 285 284 283 283 283 287 288 289 291 293 293 294 297 298 298 296 294 296 299 298 299 299 301 293 285 285 297 298 299 299 297 296 296 295 294 294 296 295 295 295 294 294 294 293 294 294 292 291 293 292 293 293 293 293 292 291
295 296 296 296 296 296 296 296 296 296 296 297 296 296 297 296 297 297 296 297 297 296 296 296 295 294 294 294 294 294 295 294 287 284 284 287 291 292 292 294 295 296 295 290 295 296 292 285 291 299 299 299 299 299 296 292 290 296 298 297 297 296 296 295 295 295 295 295 293 291 294 293 294 293 292 292 293 293 293 293 293 293 293 293 293 293 292
295 296 296 296 296 296 296 296 296 296 297 296 297 297 297 297 297 296 296 296 297 297 297 296 295 294 295 295 295 295 296 296 296 294 292 291 291 292 290 290 294 296 297 297 297 296 292 291 293 296 297 297 298 295 297 290 295 298 297 297 297 296 296 295 295 296 295 294 295 294 294 294 292 292 292 293 292 293 293 293 293 293 293 293 293 293 293
296 296 296 296 296 296 296 297 297 296 296 297 296 297 298 298 297 296 296 297 297 297 297 296 293 296 296 296 296 296 296 296 296 295 295 293 292 291 289 291 295 295 291 289 289 291 294 294 293 289 296 298 297 289 288 294 297 297 297 297 297 296 296 295 295 295 294 296 295 295 295 294 294 293 292 293 293 293 293 293 293 293 294 293 293 293 293
296 296 296 296 296 296 297 296 296 296 296 297 297 298 298 298 298 297 297 297 297 296 296 296 295 293 294 296 296 295 295 296 296 296 295 296 295 295 292 293 295 297 286 292 295 295 295 296 295 294 291 294 295 285 285 296 296 296 297 296 296 296 296 296 295 295 296 295 295 295 295 295 293 293 291 292 293 293 292 292 293 293 293 294 294 293 293
297 296 296 296 296 296 296 296 296 296 296 296 297 298 298 298 298 297 296 296 296 297 296 296 296 296 295 296 295 295 294 295 294 294 294 294 295 296 296 294 294 292 285 291 293 293 295 295 296 293 286 287 285 284 293 296 296 295 296 296 296 296 296 296 296 295 295 295 294 294 294 292 293 294 292 292 292 292 292 292 293 294 294 294 294 294 294
297 297 297 297 297 296 296 296 296 296 297 297 297 298 298 297 297 297 297 297 296 296 296 296 296 296 296 296 296 296 296 296 296 296 294 292 292 293 295 291 293 293 291 288 292 293 294 295 293 286 287 285 285 284 294 294 294 294 295 295 297 296 296 296 295 295 295 296 295 294 293 294 295 293 293 292 291 291 292 292 293 293 294 293 293 293 293
297 297 297 293 296 296 296 297 297 298 297 296 296 296 297 297 297 297 297 297 296 296 297 297 297 297 297 297 297 297 297 297 297 297 296 295 293 295 296 292 293 292 288 285 292 293 295 285 283 285 284 284 284 290 294 293 293 294 294 295 296 295 296 296 296 295 295 295 295 295 294 295 294 294 294 293 293 292 292 292 292 293 293 294 293 293 293
296 296 297 297 297 297 298 298 297 297 296 296 294 295 297 298 297 298 297 298 297 297 298 298 298 298 298 298 297 295 295 295 296 297 297 297 296 294 292 289 288 286 287 293 293 295 294 293 287 284 284 284 284 293 294 294 294 294 294 294 295 295 295 297 297 296 296 295 295 294 292 293 293 294 294 292 293 293 292 292 293 293 293 293 293 291 292
296 296 297 296 296 297 297 297 296 296 294 294 295 295 297 297 297 298 298 298 298 297 297 298 298 298 298 298 299 298 297 296 292 294 297 297 297 296 295 296 293 288 287 287 287 288 282 283 284 284 284 284 289 294 294 294 294 293 293 294 295 295 296 296 297 297 295 294 294 295 294 294 294 294 293 293 293 293 293 292 292 293 293 292 293 293 292
297 296 296 297 297 296 296 295 295 294 294 295 295 295 297 297 297 297 297 297 297 297 297 297 297 298 299 298 298 298 298 298 296 293 296 297 296 296 295 290 283 283 288 294 294 294 286 284 284 284 283 285 292 294 294 293 293 293 293 293 294 294 296 296 297 297 296 295 295 295 295 294 294 294 294 293 293 293 292 292 292 292 292 293 292 291 291
296 296 296 295 295 295 295 295 294 295 294 296 296 296 297 296 295 295 296 296 297 295 297 297 297 298 297 297 298 298 298 297 297 298 297 298 297 297 294 293 294 290 289 295 293 292 286 282 284 284 287 292 293 293 293 293 292 293 294 295 294 295 294 294 292 292 294 295 295 295 294 294 294 293 292 292 293 293 293 292 292 289 287 290 292 291 291
296 295 295 294 295 296 296 296 296 296 297 297 297 296 296 296 295 294 296 295 296 295 295 296 297 297 297 297 297 297 297 297 296 293 296 296 296 293 291 293 293 291 292 292 292 292 292 293 292 290 290 291 292 292 291 291 292 293 292 293 293 293 293 292 292 295 295 295 294 294 294 295 294 294 293 293 291 292 292 292 292 292 292 292 292 292 291
296 296 296 296 295 296 296 296 297 297 297 297 297 296 296 296 296 295 295 291 295 295 294 294 295 297 298 298 297 296 296 296 295 294 292 293 295 295 291 289 293 291 293 293 294 293 292 291 289 288 289 291 292 291 289 289 292 293 293 291 291 292 291 291 291 292 292 294 294 294 294 294 294 293 293 293 292 292 291 291 291 291 291 291 292 291 291
Wind_Speed
4 3 2 1 1 3 3 4 6 7 7 7 3 2 7 7 3 2 4 4 4 7 9 9 9 7 7 7 7 7 7 6 7 7 8 9 10 10 11 11 11 12 11 10 10 11 9 10 8 5 6 5 7 7 6 8 9 10 11 13 13 12 12 12 11 9 5 7 7 9 8 8 8 8 6 5 5 6 5 5 4 5 5 6 5 5 5
5 4 4 3 4 4 4 6 5 4 4 4 3 3 5 5 5 4 1 7 9 7 7 8 8 8 7 7 7 7 9 8 8 9 9 10 10 11 11 11 11 11 11 10 11 12 11 10 9 6 6 7 9 9 8 9 10 9 10 11 12 12 12 11 11 10 8 8 8 9 9 9 9 7 6 5 4 4 4 5 5 5 5 4 4 4 5
5 4 4 5 5 4 5 6 5 4 3 1 5 4 5 5 2 3 2 4 6 5 4 6 7 8 8 9 10 10 10 9 9 9 10 10 10 10 11 11 12 12 11 12 12 13 11 11 11 8 7 7 7 9 7 8 11 9 10 12 13 13 13 12 10 9 7 8 8 8 8 8 7 7 6 4 5 4 4 3 4 5 4 4 3 3 5
4 5 6 6 5 6 5 4 7 9 7 4 6 4 6 5 4 8 1 3 2 4 5 7 8 9 11 11 10 10 9 10 10 10 10 10 10 11 11 11 12 12 13 12 14 13 12 11 12 10 8 8 9 8 7 9 10 10 12 14 14 13 11 9 9 9 8 9 9 9 8 8 7 6 6 6 7 6 6 5 5 6 6 5 6 6 7
3 7 7 6 7 5 6 5 7 8 5 7 4 3 8 7 7 5 1 6 5 8 6 8 8 9 11 10 9 9 10 10 11 11 11 10 10 10 11 11 12 12 12 13 14 14 12 11 10 12 9 9 10 9 10 8 10 12 12 11 11 11 9 9 9 9 10 10 10 10 8 7 6 7 7 7 8 8 8 5 6 8 9 9 9 8 9
3 3 3 5 5 6 2 3 5 4 3 6 6 5 8 10 8 3 5 4 7 8 6 6 9 10 11 10 10 10 9 9 10 11 10 11 11 11 11 11 12 11 11 12 13 14 13 12 11 9 9 9 9 9 9 9 11 11 12 11 10 10 10 9 9 11 11 10 9 9 7 7 8 8 8 8 7 7 7 8 8 9 10 11 9 9 9
1 5 5 5 6 2 3 2 8 5 1 5 4 4 8 10 10 4 4 6 7 7 7 8 11 13 13 13 13 13 12 11 10 10 10 10 11 11 11 12 12 12 13 14 14 14 12 10 9 8 9 8 10 11 10 12 10 12 12 12 11 9 10 10 11 11 11 10 11 10 9 8 8 8 8 7 8 7 7 8 8 8 8 10 9 9 9
1 2 5 4 3 1 3 4 8 9 2 6 7 4 6 11 10 10 4 6 7 9 11 10 10 13 13 13 15 14 13 11 9 9 10 10 10 11 10 11 11 12 13 12 11 11 9 10 9 8 10 8 12 13 12 11 10 10 10 11 10 10 10 10 10 9 9 9 11 10 10 9 9 9 9 9 9 8 8 8 7 7 8 8 9 9 8
5 1 2 4 5 5 6 3 8 8 4 7 5 2 4 10 9 4 3 6 6 9 10 11 10 11 11 13 12 13 12 11 10 10 10 10 11 11 10 10 10 11 13 14 12 10 10 10 9 8 7 7 12 13 13 13 11 10 12 12 10 10 11 9 9 8 9 9 10 9 9 10 9 9 9 9 9 8 9 8 7 7 7 7 7 8 8
3 3 5 4 5 2 5 4 7 5 4 3 4 3 1 9 10 5 4 5 7 7 8 9 8 6 9 9 7 10 11 11 9 9 9 9 10 11 11 11 11 11 11 11 11 10 11 12 10 8 8 7 10 12 11 10 11 12 13 11 10 11 12 10 9 7 8 9 9 9 9 9 8 7 7 7 7 6 8 8 7 6 5 6 7 7 8
2 5 4 2 1 4 5 10 10 8 6 3 3 4 1 7 9 5 4 7 7 7 6 6 4 4 5 5 5 5 9 9 9 9 10 10 9 9 9 10 11 10 10 10 10 10 11 11 10 10 10 12 12 13 11 10 10 11 11 10 10 11 10 9 9 9 8 8 7 7 8 8 7 7 7 6 5 5 6 6 5 4 4 5 5 5 6
2 2 3 4 4 3 10 12 11 10 6 3 3 4 3 7 8 5 5 6 5 4 3 4 8 5 7 7 3 3 6 7 8 9 9 10 10 10 10 10 10 10 9 10 11 11 11 9 8 9 8 11 13 11 11 10 12 12 11 10 9 9 9 8 7 6 8 9 8 8 7 9 9 6 5 4 4 6 6 4 4 4 3 4 5 5 4
4 6 6 5 4 3 11 12 12 8 1 4 2 3 5 7 6 4 5 6 3 1 2 4 5 7 9 8 5 5 6 8 10 9 9 10 9 9 9 8 8 9 9 9 10 10 9 9 9 8 7 9 11 10 9 10 11 10 9 9 9 10 9 7 7 7 5 7 7 7 7 7 7 5 4 3 4 5 5 4 4 4 3 2 3 3 2
4 4 6 7 6 3 11 13 11 3 3 1 4 4 5 5 3 4 6 7 7 10 10 8 9 7 8 7 7 8 8 7 7 7 9 10 9 9 9 8 8 8 8 9 9 9 8 8 8 8 9 10 10 9 10 11 9 7 8 8 8 9 9 9 8 8 8 7 6 5 5 7 7 4 4 4 3 3 3 3 4 4 4 4 4 4 5
4 3 6 4 4 5 14 17 3 11 3 3 2 2 5 7 7 7 8 8 8 12 13 12 11 10 8 6 5 6 8 7 7 8 9 10 9 9 9 9 9 8 8 9 9 9 8 8 7 7 9 10 9 9 11 9 7 7 7 8 8 8 9 9 8 8 7 7 6 5 6 6 5 4 3 3 3 3 3 3 3 3 3 1 1 2 2
5 6 6 5 3 7 11 10 6 5 5 3 0 1 5 7 6 7 9 10 10 11 13 12 10 9 7 6 7 8 9 10 8 9 9 10 10 9 9 8 8 8 8 8 8 8 8 8 8 8 8 9 9 10 10 7 8 8 9 9 8 8 8 8 7 7 7 7 6 6 6 5 5 4 4 3 3 3 2 1 1 1 1 1 1 1 1
5 5 5 3 3 4 6 7 5 4 6 6 6 7 7 7 7 9 11 10 11 11 11 11 10 9 8 8 6 6 7 8 10 10 9 9 8 7 7 7 7 7 8 8 8 8 8 9 9 8 8 9 9 10 7 6 7 7 6 6 7 7 7 7 7 6 6 6 6 5 4 4 3 3 3 2 2 3 2 2 2 2 2 3 3 3 3
13 11 6 4 6 7 8 8 7 8 8 9 8 8 8 8 8 8 10 10 11 10 9 10 9 9 8 8 8 7 6 7 6 7 9 9 8 8 7 7 6 7 7 7 7 8 8 8 8 7 7 7 9 8 6 6 6 7 7 7 7 7 7 6 6 5 6 6 6 5 4 3 4 3 3 2 2 2 2 2 2 2 2 2 2 2 2
2 6 6 10 11 11 9 9 10 11 11 10 9 10 10 11 11 11 10 11 11 10 9 10 9 9 8 9 7 6 5 6 6 7 7 7 7 7 7 7 5 6 6 6 7 8 8 8 7 7 7 7 7 6 6 6 6 6 6 6 6 6 6 6 6 7 6 4 4 4 4 3 3 3 2 2 2 2 2 2 1 1 1 0 0 1 1
9 9 11 12 12 11 11 10 10 11 11 11 11 10 11 11 11 11 12 12 11 9 9 8 9 8 6 6 6 7 6 6 6 6 6 6 5 5 5 5 5 6 6 6 6 6 7 7 6 6 6 6 6 5 5 5 5 6 6 6 6 6 7 6 5 5 5 1 3 4 4 4 3 3 3 3 3 3 4 3 2 2 2 2 2 3 3
12 14 12 12 14 14 13 12 12 10 10 10 10 10 11 12 12 11 10 8 9 9 9 7 5 5 3 4 5 5 5 5 4 5 5 5 5 4 4 4 6 6 5 6 6 6 6 6 5 6 6 5 6 5 5 5 4 5 5 5 5 6 5 5 5 4 4 5 5 3 4 4 5 6 5 4 3 4 5 5 5 4 4 3 3 3 3
8 8 10 8 8 9 10 11 11 11 10 11 11 10 10 10 11 11 11 9 9 8 8 7 7 7 5 3 3 5 4 5 4 4 4 4 4 3 3 2 3 5 5 5 5 5 5 5 5 5 4 4 4 5 5 4 4 4 4 3 4 5 5 5 4 4 4 4 4 3 3 3 3 6 5 6 6 6 4 6 5 5 6 5 7 6 5
8 8 5 5 11 11 10 10 9 10 10 10 10 9 9 8 8 8 9 10 9 8 7 5 6 7 7 6 5 6 4 4 3 3 3 3 3 2 2 2 2 3 3 3 3 4 4 4 5 4 3 2 2 3 3 3 4 3 4 3 4 4 5 6 6 4 4 4 3 3 3 2 2 1 6 6 4 5 6 4 5 6 4 3 3 4 5
12 10 9 9 9 11 10 9 9 8 7 8 9 9 8 8 7 7 6 6 7 7 7 6 6 6 5 5 5 5 5 4 3 3 2 2 3 3 2 1 3 2 2 1 1 2 2 2 3 3 2 1 1 1 2 2 2 2 3 3 3 3 4 4 3 4 2 3 3 3 3 2 2 1 1 4 7 2 6 5 2 2 3 3 3 3 3
10 9 9 10 11 11 9 8 7 7 6 6 7 8 7 7 6 5 5 5 4 5 5 5 4 3 4 5 4 3 2 3 2 2 2 2 2 1 2 1 1 0 0 1 1 1 1 2 3 2 3 1 3 3 1 0 1 1 2 2 2 3 2 0 1 2 1 3 3 3 3 2 1 2 1 2 0 7 5 6 9 9 6 2 1 1 3
11 10 10 10 10 9 7 7 7 5 5 5 7 7 5 3 5 3 4 3 3 2 2 3 4 4 3 3 3 2 1 2 4 2 1 1 1 1 1 2 2 2 2 2 2 2 2 2 3 3 4 2 4 5 3 1 1 1 1 1 1 4 4 3 2 3 2 2 3 3 3 3 2 2 2 2 2 2 2 6 6 2 3 4 5 5 5
10 10 10 9 8 7 4 4 6 5 5 4 6 7 6 6 2 1 4 3 3 2 1 2 2 3 3 2 1 1 3 2 4 3 2 2 2 3 2 1 2 2 3 4 3 1 2 4 4 3 3 1 2 3 4 2 2 1 0 1 1 5 4 9 4 2 2 2 2 2 2 2 2 2 2 2 2 2 2 2 2 1 5 5 3 6 4
7 4 5 5 7 7 7 7 7 6 5 5 5 5 5 4 4 4 4 4 3 3 2 2 2 4 4 4 3 3 3 3 3 2 2 2 3 2 1 2 3 4 5 5 6 3 4 4 4 4 3 1 2 3 4 4 3 2 1 1 1 1 4 6 2 2 1 1 2 2 2 2 2 2 2 2 1 2 2 2 2 1 2 2 2 12 5
6 6 7 8 7 6 6 6 5 5 5 4 3 3 3 2 3 2 2 2 2 1 2 3 2 2 2 3 3 3 3 3 3 3 3 2 2 2 3 3 4 5 6 7 7 6 6 5 4 4 4 2 2 3 3 5 4 3 2 2 1 0 2 3 2 2 2 2 3 3 2 1 1 1 2 2 2 2 3 3 2 2 2 3 4 2 3
5 5 6 6 5 5 5 4 4 4 3 3 2 2 0 2 1 1 1 1 2 2 1 2 3 3 3 3 3 4 3 4 4 3 2 2 2 3 3 4 5 6 7 8 8 7 7 7 6 5 4 3 4 4 3 4 5 3 2 2 3 4 4 4 3 0 2 2 3 6 4 1 1 1 2 2 3 3 2 1 2 1 2 3 3 4 4
4 4 5 5 4 3 4 4 2 2 2 1 1 1 1 2 2 2 2 1 2 2 3 4 3 2 3 4 3 2 2 2 2 3 3 3 2 2 3 4 5 7 7 8 8 7 7 7 7 5 4 4 5 5 4 4 4 3 3 2 2 7 4 5 5 6 2 1 1 2 1 1 2 2 2 2 3 3 3 2 2 2 3 3 4 5 6
4 4 3 2 2 2 3 1 1 1 1 1 1 2 1 1 2 3 3 3 3 3 3 4 4 4 3 2 1 1 1 1 1 2 2 1 1 1 3 4 5 5 6 6 5 6 7 7 7 7 5 5 7 6 5 5 5 5 3 2 1 5 4 6 5 1 3 0 2 2 1 2 1 1 1 3 3 2 2 2 2 2 2 2 4 4 6
3 4 4 3 2 1 2 2 2 1 1 2 1 2 2 2 2 2 2 3 3 3 4 4 4 3 3 3 2 1 1 1 1 1 1 2 3 2 3 4 4 4 5 5 6 7 7 7 7 7 6 6 7 8 6 5 5 5 4 3 2 2 2 2 5 3 3 2 2 3 2 1 1 1 2 2 3 3 2 1 2 2 2 4 4 5 6
4 5 6 4 4 3 3 2 1 1 1 2 1 1 0 1 2 3 3 2 2 2 3 3 3 2 2 1 2 2 1 1 3 2 2 1 2 1 2 3 5 5 6 6 7 7 7 7 7 6 6 6 7 8 6 6 6 6 4 3 2 2 2 1 5 3 2 1 1 4 4 1 3 1 1 1 2 2 3 1 2 2 2 3 4 5 7
3 3 3 3 2 2 1 2 2 0 1 1 1 1 0 1 2 3 3 3 2 1 0 1 2 2 2 2 3 2 2 3 4 3 1 1 1 2 4 5 6 6 7 7 6 7 7 7 8 7 6 5 7 7 6 6 6 5 4 3 3 2 1 1 3 2 2 1 2 2 2 2 1 1 1 1 2 1 2 2 2 3 2 2 3 4 5
2 1 2 2 2 1 1 1 1 2 2 1 1 1 1 2 3 3 2 2 2 1 1 1 2 2 2 2 3 4 5 5 5 4 3 2 2 2 3 6 7 7 7 7 5 4 4 6 1 4 4 5 6 7 7 6 6 4 3 3 2 2 1 2 1 1 1 3 3 2 1 4 3 1 1 1 2 2 2 1 1 2 2 2 3 3 3
4 4 3 3 3 3 2 2 1 2 2 1 2 2 2 2 3 3 3 3 2 1 1 2 3 3 4 5 3 2 3 3 3 2 1 0 1 1 2 4 7 6 5 5 3 2 2 3 6 2 5 6 6 7 5 2 5 4 4 3 3 3 2 2 1 2 1 1 1 1 3 5 4 3 1 1 2 2 2 1 2 2 2 2 4 3 4
4 4 4 4 4 3 2 2 2 2 2 2 2 2 2 4 4 4 4 3 2 2 2 3 3 3 3 2 2 5 5 4 4 3 2 2 2 2 4 5 4 4 4 3 3 1 3 4 6 5 6 7 6 6 5 6 5 5 4 4 4 2 2 2 1 1 2 0 2 1 3 2 2 2 1 1 2 2 2 2 2 2 2 2 3 3 3
2 1 1 2 2 2 3 1 2 2 3 4 4 4 2 3 4 4 4 4 2 2 3 4 3 4 5 6 4 4 5 6 5 4 4 4 3 3 4 4 5 5 4 4 2 1 2 1 2 4 5 4 4 3 6 4 5 5 5 3 3 3 1 2 1 0 1 1 2 2 2 3 2 1 1 1 2 3 2 3 3 3 3 4 2 3 3
2 2 3 3 4 3 3 3 2 2 3 3 5 6 4 5 5 5 5 5 3 3 4 4 4 5 5 5 6 6 5 5 6 4 4 3 5 6 7 6 2 1 3 3 1 2 4 2 4 2 1 2 2 4 4 4 6 5 4 4 3 3 2 1 2 0 1 1 4 2 1 2 2 1 1 2 2 3 3 3 3 3 3 3 4 4 4
3 4 3 4 4 4 5 5 5 5 5 6 5 5 5 5 5 6 5 6 4 3 5 5 6 5 4 4 5 5 3 3 5 5 5 5 5 6 3 3 2 0 1 1 2 1 1 4 5 3 0 3 2 2 4 5 5 5 5 4 4 4 3 3 1 1 1 1 2 2 2 2 2 2 2 2 3 3 3 3 3 3 3 3 3 3 3
2 2 4 5 5 5 4 4 4 6 6 6 6 5 5 5 6 6 5 5 5 4 5 5 4 5 4 4 4 4 4 4 4 4 5 5 4 3 3 2 2 1 7 5 4 3 3 3 4 2 3 2 1 3 5 2 4 3 4 4 5 4 3 2 2 0 0 2 1 2 2 2 2 2 1 2 3 4 3 3 3 3 3 3 3 3 3
2 3 4 4 4 5 4 4 5 5 6 6 5 5 5 5 5 6 6 6 6 6 6 6 4 5 5 6 6 6 5 4 5 5 5 5 5 5 5 4 2 5 7 2 2 3 3 4 5 6 8 6 1 6 4 4 4 3 4 4 4 4 4 4 2 1 0 1 2 2 2 2 2 2 1 2 3 4 3 3 3 3 3 3 3 3 3
2 3 3 3 4 3 4 5 5 5 6 5 4 3 5 5 5 6 6 6 6 6 7 7 6 6 7 6 6 5 4 4 4 4 5 4 5 6 5 3 2 5 7 4 4 5 4 3 4 5 10 6 4 4 5 5 5 4 3 4 5 5 5 4 4 3 1 1 2 3 3 3 2 2 3 2 2 3 3 2 2 3 3 3 2 2 2
2 2 2 3 3 3 4 4 4 5 5 5 5 5 5 5 5 5 6 6 6 6 6 6 6 6 5 5 5 5 4 3 3 3 4 3 3 2 5 3 2 3 5 3 3 3 4 2 5 8 7 7 7 5 5 5 5 4 3 4 5 6 5 5 5 4 2 2 1 2 2 3 3 2 3 3 4 3 3 3 3 3 3 2 2 2 2
1 1 1 2 3 3 4 4 4 4 5 6 7 5 4 4 4 5 5 6 6 5 5 5 5 4 4 4 5 5 4 4 4 4 3 3 2 3 3 0 1 2 4 3 4 4 1 8 6 5 5 5 6 6 5 5 5 4 4 4 5 5 6 5 5 4 4 3 3 2 3 3 3 3 3 3 3 3 4 4 4 3 3 3 2 2 2
2 2 2 3 4 4 4 4 4 5 6 6 6 5 2 3 4 5 5 5 6 6 5 5 5 5 5 5 5 4 4 4 4 4 4 3 2 2 4 3 2 4 3 3 3 2 4 3 3 4 5 6 7 6 5 5 5 5 4 4 4 4 5 5 6 5 4 4 2 1 1 1 2 4 4 4 4 3 3 4 3 3 2 2 3 2 2
3 3 4 4 5 5 5 5 5 6 6 6 6 5 4 3 3 4 5 5 5 5 5 5 5 5 5 5 5 4 4 4 3 3 4 3 2 2 2 0 3 4 3 4 3 1 4 3 3 4 4 5 5 5 5 4 4 4 5 4 4 4 4 5 6 5 5 3 4 4 3 4 4 4 4 4 3 3 3 3 3 3 3 3 2 1 1
3 4 4 4 4 4 4 4 4 5 4 3 5 3 2 3 4 4 4 5 5 5 5 5 5 4 3 3 2 3 3 3 4 2 1 2 2 2 3 5 5 4 5 2 1 3 5 3 3 3 5 6 5 5 4 3 3 3 3 2 3 2 3 4 5 6 5 4 4 4 4 3 3 3 3 3 4 3 5 4 3 3 4 3 2 3 2
3 4 4 3 3 3 3 4 4 3 2 3 4 3 2 3 4 3 3 3 4 3 4 3 2 2 2 2 2 2 2 2 3 3 3 3 3 3 2 2 3 2 3 2 1 3 6 5 5 5 5 5 5 4 3 3 3 3 2 2 1 1 1 0 2 3 4 5 5 5 3 4 3 2 2 4 3 3 4 4 3 5 8 1 3 2 2
3 3 3 2 2 2 2 2 3 3 3 3 3 2 3 3 2 3 3 4 3 2 3 1 2 2 3 4 3 2 2 2 0 1 2 2 2 2 1 2 4 3 3 3 1 1 2 4 3 5 5 4 3 4 4 3 3 3 2 1 2 1 3 3 4 5 5 5 5 5 5 5 4 4 3 3 2 2 3 5 4 3 5 5 4 3 3
2 2 1 1 2 1 1 1 1 1 1 2 2 2 3 3 3 2 1 2 2 1 1 1 2 1 2 1 1 1 1 0 1 3 2 2 2 3 4 2 3 4 4 4 2 2 1 2 4 2 3 2 1 2 4 1 3 2 2 2 1 2 1 2 3 3 3 5 6 5 6 5 4 3 3 3 3 4 3 3 3 3 4 4 4 4 3
Wind_Direction
194 200 186 172 41 38 31 34 18 354 350 357 333 326 358 334 280 307 10 342 49 62 63 84 80 78 78 68 54 46 44 38 35 36 36 36 33 26 25 24 23 22 21 18 23 19 9 9 12 85 137 138 99 109 131 151 126 125 125 124 122 118 111 106 104 93 74 99 106 110 109 104 99 92 94 109 129 139 150 145 139 132 139 140 153 155 154
181 171 177 182 160 121 87 67 38 1 354 10 352 346 344 319 324 19 9 79 56 30 42 54 66 73 75 67 59 53 48 42 40 41 42 40 37 31 27 23 21 22 21 22 31 29 17 14 6 32 62 102 113 121 128 125 118 118 113 110 111 109 109 112 113 118 122 109 106 103 99 95 91 81 63 83 112 132 144 144 137 126 128 131 148 152 142
190 164 170 167 172 170 93 52 34 24 342 7 16 356 4 312 231 10 202 111 67 43 57 77 83 86 81 66 56 52 46 44 41 43 42 40 37 34 31 27 27 25 24 28 36 34 20 16 10 348 49 34 46 67 76 94 99 93 89 102 106 114 119 123 112 107 102 96 99 92 87 86 83 85 92 77 82 84 86 101 112 116 118 123 118 123 111
187 187 204 176 170 172 137 74 38 20 17 13 4 23 13 359 354 335 234 191 131 93 97 97 86 83 68 60 55 50 47 44 44 44 43 41 37 37 35 34 34 31 30 31 37 34 22 23 13 356 33 51 49 55 70 80 87 85 87 99 105 105 107 99 93 89 88 92 88 87 88 90 96 92 91 92 92 82 68 57 71 86 95 95 95 87 85
223 154 201 189 194 197 200 54 7 344 351 354 341 57 26 17 334 313 296 47 99 138 141 119 92 77 70 58 46 50 50 48 50 48 46 45 46 43 40 41 43 41 37 39 41 41 36 26 21 6 17 54 56 54 62 62 78 82 80 80 82 81 79 81 78 83 81 78 81 81 84 92 93 95 91 89 90 92 90 88 82 78 79 80 76 77 77
114 185 195 206 209 237 85 64 10 329 341 1 353 28 2 354 340 335 352 88 123 135 145 126 111 85 73 66 56 49 49 52 52 53 53 54 54 51 51 49 49 49 43 45 45 47 49 42 33 9 12 49 59 57 61 58 74 75 80 74 73 71 70 71 83 85 83 85 87 83 77 85 96 91 85 82 83 85 96 90 82 84 83 80 78 75 75
280 133 176 219 241 82 118 128 27 2 304 4 326 317 13 5 353 350 91 115 133 122 107 97 97 97 86 72 63 50 42 47 54 54 53 54 52 53 54 55 54 53 54 52 47 44 42 38 35 31 27 39 65 59 54 62 60 75 75 82 76 67 67 67 74 77 85 90 91 93 98 94 87 85 84 84 81 80 79 80 81 84 88 86 79 80 80
181 213 181 237 79 82 181 170 28 4 238 346 317 230 39 17 1 354 53 91 110 112 112 117 114 105 97 76 56 45 45 43 43 51 54 53 55 57 57 55 50 52 54 53 48 39 24 37 26 38 54 43 70 66 53 52 55 55 67 67 61 65 66 60 60 71 87 89 88 89 88 87 84 84 84 82 80 78 78 76 77 81 83 85 87 84 83
242 241 47 75 127 120 59 60 9 15 357 342 353 332 29 23 2 33 102 100 114 119 120 127 128 120 106 79 53 26 26 42 50 54 55 55 60 64 65 60 59 60 60 59 48 46 37 31 14 11 28 47 71 72 67 62 52 51 59 59 57 57 60 52 52 58 61 67 77 81 81 82 82 81 81 79 79 78 79 73 67 63 68 75 80 84 80
279 211 156 161 193 146 71 30 3 11 344 313 284 261 227 24 8 39 119 119 122 120 125 138 157 159 80 65 41 8 4 27 49 52 55 60 67 71 74 77 73 66 64 61 51 49 49 39 23 16 14 40 65 67 66 64 60 59 61 59 53 56 61 58 53 51 62 65 66 70 75 76 74 67 63 66 68 68 78 81 74 65 65 68 66 65 70
182 260 216 133 127 78 30 350 348 345 335 284 227 241 109 15 358 28 106 109 118 129 146 161 266 230 85 88 45 2 2 31 41 53 58 62 64 66 70 74 76 72 67 62 56 44 41 40 25 18 26 31 48 56 54 59 65 68 65 63 66 70 65 56 48 46 52 66 78 80 80 76 70 66 62 57 45 56 74 75 69 63 59 73 75 67 61
310 242 120 104 38 32 352 341 338 333 316 203 193 229 84 5 357 32 90 99 87 62 45 21 34 9 133 122 113 342 353 46 45 46 47 47 55 62 71 72 74 76 73 65 57 52 50 42 23 24 25 46 50 52 55 57 62 63 63 72 74 73 73 69 66 64 66 68 62 64 75 83 74 71 83 87 83 78 66 68 84 80 71 74 74 65 54
108 99 100 105 103 57 352 340 333 335 17 191 246 15 4 356 355 47 54 63 65 38 15 357 85 23 62 94 86 40 22 45 39 37 53 55 52 52 52 52 61 71 65 63 64 64 62 55 45 37 36 54 57 53 55 59 61 67 71 67 68 73 76 74 72 70 68 77 81 80 74 67 73 65 73 83 100 95 107 115 112 105 98 90 101 112 105
108 99 95 93 85 46 346 337 324 9 245 10 44 348 323 310 37 53 60 61 65 83 77 84 87 85 73 71 60 44 34 35 40 31 53 62 60 59 56 48 53 67 70 74 76 73 67 64 62 56 55 61 65 63 61 63 63 67 70 72 76 77 77 76 74 73 66 60 64 75 86 86 77 59 57 65 63 89 92 96 111 119 144 165 159 148 151
109 101 97 100 44 39 5 329 307 16 24 46 32 27 33 51 59 67 61 70 82 100 96 86 89 85 77 62 63 68 69 63 49 54 59 62 62 59 60 59 51 58 61 56 58 65 68 65 58 62 69 70 71 72 70 67 69 70 72 75 76 80 81 80 78 75 72 69 69 66 64 70 85 88 83 79 88 97 118 138 136 136 125 106 156 134 150
72 74 58 56 21 314 334 3 45 348 12 338 327 324 73 61 65 74 77 69 78 89 100 101 92 87 86 84 90 86 83 84 78 73 73 73 71 66 60 61 64 67 73 68 64 54 53 56 60 60 62 67 67 71 73 78 82 82 81 81 80 79 77 77 78 75 74 71 65 65 63 69 66 58 48 38 41 40 32 10 69 91 84 72 24 64 17
44 68 73 41 18 355 7 20 45 34 33 62 81 86 73 78 70 83 84 78 77 83 91 93 95 85 78 78 64 62 51 68 79 84 81 81 81 81 76 71 59 52 60 62 64 63 61 65 64 63 61 66 67 69 71 75 78 82 88 89 88 87 86 84 77 73 71 69 64 58 54 47 64 72 70 35 51 42 10 21 13 16 44 30 18 11 5
90 73 75 88 65 57 54 57 52 56 68 73 84 81 84 78 88 92 100 101 97 95 93 96 85 85 85 76 61 52 42 46 43 67 87 96 104 104 102 94 89 86 84 70 64 65 66 69 72 71 69 69 71 70 71 70 73 75 74 73 71 70 71 71 75 85 87 84 74 72 69 69 60 46 42 47 47 50 42 51 34 29 29 18 19 23 354
114 66 72 83 86 87 84 74 69 69 70 77 81 87 93 102 103 102 102 105 105 104 103 99 101 92 89 87 82 77 72 64 63 69 71 70 78 89 86 87 97 94 88 78 70 62 62 58 62 63 65 66 64 60 59 67 73 77 79 81 79 75 74 79 71 58 47 45 68 70 50 59 68 63 54 57 59 47 46 42 72 67 54 76 8 68 335
92 105 95 91 91 90 88 87 85 80 83 86 87 95 106 110 112 113 118 117 112 116 108 111 109 111 108 104 106 106 102 96 88 85 83 83 79 70 72 71 72 73 71 74 72 65 58 54 52 54 57 61 62 59 59 57 61 62 62 56 67 70 65 59 57 65 74 4 329 65 53 47 52 61 60 45 50 42 27 15 4 25 24 19 12 11 349
103 106 104 101 94 87 82 79 77 87 96 99 102 109 113 115 118 122 125 128 127 125 121 117 113 102 84 71 78 83 88 92 83 83 85 81 78 71 58 31 31 52 57 63 66 64 52 43 40 44 41 43 49 53 50 57 57 66 69 65 60 61 57 59 61 56 49 45 44 50 73 75 67 40 26 18 33 72 45 18 7 354 352 18 32 9 340
116 122 125 128 115 107 99 90 93 97 101 107 113 118 118 118 117 121 123 124 126 133 144 146 141 130 128 119 107 103 98 99 106 108 102 104 107 97 70 46 58 66 53 51 50 47 44 27 21 22 27 33 29 34 32 34 44 48 45 53 53 46 44 45 49 48 43 50 49 53 53 75 109 105 47 28 16 360 80 84 46 16 346 359 4 346 340
112 116 100 80 102 103 98 105 103 99 99 102 103 109 123 131 130 132 131 130 133 141 154 163 152 149 156 162 163 139 141 130 133 116 117 105 113 120 140 126 100 78 71 59 49 45 34 11 3 360 350 1 22 29 32 22 24 23 22 27 35 46 46 43 12 3 40 37 42 41 45 33 44 107 146 135 110 88 16 12 356 356 357 338 336 339 328
103 110 111 112 113 110 114 108 103 98 94 89 87 90 98 116 130 136 133 136 139 143 154 162 159 149 157 169 175 157 146 151 142 145 124 100 105 122 141 96 104 119 123 139 112 78 23 354 349 342 322 264 283 360 14 21 22 13 17 6 37 38 42 42 31 352 28 37 21 33 33 23 24 12 345 140 137 162 145 113 351 334 340 354 356 360 349
110 108 106 106 108 112 110 108 101 98 80 74 86 86 88 97 105 110 116 128 138 147 156 163 171 175 168 176 187 171 149 145 148 91 96 81 60 25 56 73 137 181 264 351 18 341 327 345 326 304 289 251 213 230 238 346 340 14 21 23 27 24 8 29 135 170 331 27 13 30 24 29 27 21 35 348 132 138 154 179 175 177 164 150 155 324 325
112 110 105 106 107 105 111 112 105 101 106 104 102 98 94 55 47 106 100 103 115 144 164 184 193 202 225 184 181 178 184 132 115 184 204 49 81 49 30 360 3 335 340 323 329 328 328 335 328 300 279 245 208 220 236 219 305 10 352 34 340 13 13 347 9 352 8 15 13 13 16 27 18 27 44 47 69 349 142 154 173 195 241 188 162 179 188
111 116 120 112 110 116 118 88 102 112 112 103 93 98 99 112 162 102 96 100 96 114 134 146 184 180 190 197 192 278 347 68 151 214 340 8 355 348 10 342 312 309 296 302 287 3 326 298 305 308 294 209 215 215 243 234 241 235 85 301 115 96 14 320 337 23 5 360 11 10 27 20 50 44 57 74 53 58 49 15 17 91 147 162 168 72 44
108 77 360 94 109 107 98 95 108 115 113 102 108 100 104 113 116 117 109 111 120 136 143 144 167 175 184 180 208 192 200 218 267 334 319 329 1 8 353 326 289 271 277 278 285 263 267 295 310 311 296 255 212 203 234 240 238 247 272 187 231 185 169 205 283 360 3 32 14 22 8 51 46 51 65 50 47 97 79 43 8 66 14 33 117 125 158
85 82 76 71 79 89 98 110 123 121 115 114 103 115 127 132 90 83 83 67 97 148 173 175 189 202 218 187 221 244 256 273 291 299 315 16 18 351 331 307 291 276 270 269 272 271 269 277 290 296 286 255 231 231 249 254 249 250 261 281 273 336 329 12 343 348 30 25 25 23 358 29 50 75 39 42 30 18 27 44 6 345 22 33 345 79 126
89 101 103 96 101 110 119 118 105 111 123 131 141 142 92 341 337 22 22 147 203 248 221 211 223 218 215 218 225 254 273 293 310 327 345 14 12 348 318 304 293 278 268 264 265 263 262 266 267 274 275 248 231 233 249 267 256 251 286 324 338 353 3 7 321 325 350 17 94 221 239 20 59 34 12 26 18 11 20 59 32 360 44 46 33 8 6
102 98 99 100 94 77 72 90 107 104 112 150 193 234 162 271 313 312 314 324 255 247 220 228 222 227 215 234 245 251 306 339 337 330 349 8 10 352 321 306 298 301 303 307 303 285 269 267 262 258 258 243 228 228 253 258 247 244 247 244 127 69 17 313 329 327 339 7 330 286 25 295 40 13 357 4 8 5 344 26 26 32 22 30 27 23 10
135 121 116 118 101 102 111 99 109 140 97 125 212 228 205 287 327 340 338 298 287 266 231 226 228 223 222 228 211 210 211 73 352 339 356 3 325 287 281 296 299 288 291 293 290 279 268 260 253 247 233 228 222 223 237 247 242 241 232 245 226 173 152 243 237 172 310 264 247 226 318 331 349 342 27 3 3 3 15 28 37 34 32 34 34 30 18
151 166 162 142 141 89 26 55 321 71 160 144 123 49 65 40 8 345 351 317 269 234 226 223 216 210 199 184 193 184 84 59 283 243 226 246 237 230 256 281 283 277 275 282 282 275 264 257 253 250 235 220 222 220 224 238 243 247 238 220 204 90 133 174 342 282 189 240 253 336 311 298 277 195 53 3 9 3 26 51 48 48 47 43 39 38 47
43 44 36 28 351 352 348 10 76 289 117 99 116 160 304 17 6 349 332 323 291 259 232 218 214 180 148 114 100 81 96 259 252 184 167 240 260 260 259 252 265 272 274 286 298 291 272 248 236 233 223 220 215 216 223 229 231 236 220 226 239 236 245 166 187 262 328 269 262 183 245 221 254 171 171 29 35 20 39 62 58 49 51 46 39 60 83
39 39 33 23 32 9 344 314 313 284 284 245 220 240 317 6 351 12 33 324 319 297 302 231 147 102 97 91 105 116 156 232 284 318 305 283 313 288 289 286 274 271 281 288 290 282 269 257 238 220 220 223 216 213 219 229 230 242 229 237 243 275 315 290 298 343 325 324 280 307 305 249 167 120 355 5 48 38 70 77 69 67 64 51 45 38 64
42 59 51 28 24 360 314 283 305 330 300 306 125 277 295 347 346 343 325 343 10 330 181 124 112 113 127 167 193 197 212 231 245 259 275 264 252 263 284 290 295 293 302 308 297 289 288 257 211 3 265 221 217 212 215 217 229 234 227 231 215 239 255 319 313 240 303 314 336 331 337 28 11 102 68 82 64 60 97 97 77 73 61 55 47 44 44
53 41 33 14 19 351 328 293 287 266 257 250 252 257 277 297 313 335 314 292 286 271 241 178 172 176 206 217 234 234 226 233 231 222 206 157 217 269 275 281 285 290 307 317 27 33 290 54 69 151 236 225 217 213 158 141 237 226 217 233 236 228 273 273 327 298 281 256 3 91 132 174 183 149 150 78 82 84 113 111 90 72 70 61 62 56 57
62 44 34 22 10 352 353 2 348 281 251 234 222 261 310 314 316 311 308 300 278 266 242 236 224 198 187 176 201 225 235 226 229 213 187 226 251 268 275 270 286 298 312 352 29 322 44 98 161 190 206 208 197 189 135 168 279 285 231 226 213 237 274 295 269 226 263 16 99 168 163 167 168 177 139 111 118 116 122 108 75 67 83 82 70 66 64
73 66 48 21 334 356 326 303 250 262 271 284 294 292 304 318 309 295 290 285 286 256 240 244 240 235 216 214 224 209 212 210 189 177 176 215 236 245 274 298 311 325 320 350 345 327 93 54 280 202 194 186 177 148 124 155 242 253 242 225 232 243 236 265 360 65 46 254 173 145 160 161 164 152 162 118 120 117 98 66 77 99 99 94 82 75 73
307 317 333 327 312 320 303 294 280 259 257 274 284 289 295 288 288 283 283 283 266 233 254 250 252 259 263 260 259 254 224 175 168 169 192 210 229 254 273 264 223 299 48 44 303 358 39 35 280 274 120 110 159 170 152 170 224 241 232 241 219 233 240 278 271 142 200 223 96 276 165 156 174 170 141 139 139 135 132 135 129 115 113 99 92 87 82
304 307 306 300 302 298 296 295 291 290 283 276 272 278 286 288 293 286 278 278 283 237 249 256 256 261 272 280 276 268 262 203 182 184 184 202 233 249 278 304 40 81 153 68 42 100 15 336 339 335 203 193 177 84 143 167 236 235 246 239 226 226 221 241 314 308 188 242 154 198 145 158 144 198 161 162 134 144 147 140 126 122 108 112 108 99 88
339 310 294 288 288 291 296 298 303 292 288 280 274 274 273 276 278 280 284 280 276 264 259 254 265 285 288 277 270 273 258 227 203 205 201 234 269 298 303 324 66 78 107 122 152 168 143 176 250 288 317 302 188 86 358 232 238 241 234 217 223 222 233 212 229 259 56 255 175 167 156 175 169 161 191 191 160 158 154 155 145 137 130 121 116 107 104
318 302 298 295 294 288 286 288 290 296 296 289 278 269 270 269 272 270 271 271 272 269 264 268 225 213 244 253 263 266 263 240 225 215 218 233 245 264 279 311 322 122 155 207 224 249 216 202 204 196 198 221 216 133 199 242 254 232 233 220 221 224 224 227 230 235 211 222 212 167 183 180 182 173 188 184 164 167 168 163 154 146 142 134 123 119 110
299 289 297 303 305 320 303 290 287 281 280 287 295 283 271 267 261 267 270 274 276 272 275 275 270 263 259 255 256 259 257 237 227 221 243 245 224 208 221 256 285 116 160 238 233 245 248 232 232 134 150 169 127 183 223 240 247 243 240 236 220 220 224 214 212 230 206 164 226 212 175 191 203 171 169 171 179 177 180 176 157 162 158 147 140 130 116
299 324 325 336 325 304 296 304 306 310 313 308 289 282 277 265 262 260 265 268 272 278 275 278 277 267 254 245 244 247 262 251 238 223 237 267 299 87 151 181 195 200 161 224 268 261 255 251 107 130 164 170 174 194 231 243 245 244 238 232 226 229 225 220 220 217 209 203 195 234 183 190 196 176 178 172 172 178 180 181 176 172 173 168 150 151 147
279 281 327 292 293 311 321 319 319 308 299 295 287 262 244 271 265 261 259 267 272 269 274 271 266 256 246 242 241 242 239 238 229 234 254 282 309 15 78 274 280 93 116 199 280 277 284 88 106 145 156 177 171 197 230 236 242 235 231 235 235 229 229 222 214 215 208 206 189 177 191 200 161 181 192 185 186 194 192 202 188 190 183 188 182 157 153
334 317 310 317 317 311 305 292 293 283 283 283 289 300 283 262 273 270 267 265 267 271 266 259 250 249 251 252 249 240 235 227 215 217 234 231 182 164 126 146 182 130 190 241 267 285 24 105 145 158 171 167 204 230 228 228 227 238 236 240 238 233 230 222 213 215 209 209 171 150 116 203 193 176 183 206 195 206 181 202 210 196 180 174 159 184 220
327 320 321 325 314 316 296 277 272 283 299 309 316 305 304 296 279 271 265 257 254 255 255 252 254 253 248 246 242 247 262 265 263 209 197 222 197 160 201 229 86 112 197 229 252 189 99 35 79 160 165 175 204 229 231 232 238 232 238 228 233 231 228 215 213 213 218 191 172 201 186 187 190 193 173 197 199 203 194 202 208 208 203 200 208 203 172
320 320 317 304 297 294 295 294 291 286 293 316 294 299 320 297 282 274 267 260 257 250 243 239 241 246 236 222 240 239 232 245 261 284 143 234 197 192 122 120 133 171 218 242 202 129 124 140 140 167 182 207 218 215 228 228 234 253 245 238 222 217 223 217 216 215 222 211 212 210 197 189 192 190 185 191 200 199 201 206 210 212 214 207 201 212 220
312 299 296 319 326 328 332 307 305 324 325 304 301 317 313 305 300 314 307 275 264 272 267 237 220 201 186 203 215 237 235 247 252 262 247 232 230 231 203 202 115 129 311 324 114 116 121 147 155 162 201 218 222 232 220 234 224 220 208 153 191 177 131 22 18 345 267 232 228 222 213 206 195 157 192 199 206 201 199 207 205 72 43 323 222 218 221
317 317 337 357 331 2 331 315 339 334 322 332 323 329 291 288 323 331 340 344 299 254 251 175 177 185 210 197 207 214 236 236 181 330 253 190 193 157 167 155 150 173 178 218 186 149 152 182 164 170 200 232 235 220 213 200 202 150 163 159 142 211 147 181 221 213 220 227 223 220 219 217 205 180 200 207 192 222 218 213 204 194 214 222 220 220 225
292 317 316 317 330 350 335 18 337 296 290 293 299 301 293 304 304 311 27 41 328 28 6 287 232 151 270 248 203 180 156 344 200 158 173 185 187 174 146 214 184 156 199 202 153 158 158 112 124 189 287 246 194 159 119 144 214 173 155 147 177 220 234 254 231 230 219 214 222 222 214 221 213 199 211 219 201 205 212 215 218 219 218 222 221 223 226